FW5816 Weather Reports


Display with metric or nautical units.
time (UTC)temp
F
wind
direction
speed
MPH
gust
MPH
rain 1hr
in
rain 24hr
in
rain mn
in
humidity
%
barometer
mb
20260504224532 77 221 10.0 22.0 0.00 0.17 0.17 45 1007.3
20260504224013 77 302 10.0 22.0 0.00 0.17 0.17 46 1007.3
20260504223511 78 276 7.0 15.0 0.00 0.17 0.17 46 1007.2
20260504223030 78 233 7.0 19.0 0.00 0.17 0.17 48 1007.3
20260504222512 78 338 8.0 19.0 0.00 0.17 0.17 46 1007.3
20260504222014 78 275 7.0 15.0 0.00 0.17 0.17 47 1007.3
20260504221530 78 218 6.0 15.0 0.00 0.17 0.17 49 1007.4
20260504221012 78 272 8.0 16.0 0.00 0.17 0.17 48 1007.3
20260504220514 79 171 7.0 16.0 0.00 0.17 0.17 48 1007.2
20260504220031 79 227 8.0 16.0 0.00 0.17 0.17 48 1007.4
20260504215513 79 219 7.0 16.0 0.00 0.17 0.17 48 1007.4
20260504215017 79 295 8.0 16.0 0.00 0.17 0.17 48 1007.5
20260504214537 79 191 6.0 16.0 0.00 0.17 0.17 49 1007.4
20260504214012 78 261 6.0 16.0 0.00 0.17 0.17 48 1007.4
20260504213514 78 214 6.0 16.0 0.00 0.17 0.17 48 1007.5
20260504213032 78 166 8.0 16.0 0.00 0.17 0.17 48 1007.5
20260504212515 78 170 6.0 15.0 0.00 0.17 0.17 48 1007.7
20260504212014 78 287 6.0 14.0 0.00 0.17 0.17 49 1007.7
20260504211530 77 286 7.0 14.0 0.00 0.17 0.17 50 1007.8
20260504211013 78 253 7.0 14.0 0.00 0.17 0.17 49 1007.9
20260504210518 78 243 3.0 19.0 0.00 0.17 0.17 50 1007.8
20260504210030 78 256 5.0 19.0 0.00 0.17 0.17 48 1008.1
20260504205514 78 176 7.0 15.0 0.00 0.17 0.17 48 1007.9
20260504205015 78 270 9.0 25.0 0.00 0.17 0.17 48 1007.9
20260504204604 78 297 10.0 25.0 0.00 0.17 0.17 46 1007.8
20260504204010 78 352 8.0 25.0 0.00 0.17 0.17 47 1007.9
20260504203513 78 294 9.0 25.0 0.00 0.17 0.17 48 1007.9
20260504203032 78 259 12.0 20.0 0.00 0.17 0.17 46 1007.8
20260504202513 78 211 9.0 18.0 0.00 0.17 0.17 47 1007.8
20260504202014 78 200 9.0 17.0 0.00 0.17 0.17 47 1007.7
20260504201531 78 279 11.0 17.0 0.00 0.17 0.17 47 1007.8
20260504201011 78 278 7.0 18.0 0.00 0.17 0.17 48 1007.8
20260504200512 78 217 8.0 19.0 0.00 0.17 0.17 47 1007.8
20260504200035 77 224 7.0 20.0 0.00 0.17 0.17 48 1007.9
20260504195512 77 281 13.0 21.0 0.00 0.17 0.17 46 1008.1
20260504195013 78 277 12.0 21.0 0.00 0.17 0.17 47 1008.1
20260504194534 77 198 11.0 20.0 0.00 0.17 0.17 46 1007.9
20260504194011 78 259 8.0 15.0 0.00 0.17 0.17 48 1008.2
20260504193514 77 200 8.0 15.0 0.00 0.17 0.17 47 1008.3
20260504193033 78 252 8.0 16.0 0.00 0.17 0.17 49 1008.3
20260504192514 77 173 7.0 16.0 0.00 0.17 0.17 49 1008.6
20260504192014 77 283 8.0 14.0 0.00 0.17 0.17 48 1008.5
20260504191531 77 240 6.0 18.0 0.00 0.17 0.17 48 1008.6
20260504191013 77 250 6.0 18.0 0.00 0.17 0.17 50 1008.8
20260504190513 77 248 10.0 18.0 0.00 0.17 0.17 49 1008.9
20260504190035 77 259 10.0 18.0 0.00 0.17 0.17 47 1008.9
20260504185516 77 188 6.0 16.0 0.00 0.17 0.17 50 1009.0
20260504185012 77 289 6.0 14.0 0.00 0.17 0.17 52 1009.0
20260504184532 77 302 6.0 18.0 0.00 0.17 0.17 50 1009.2
20260504184017 77 281 8.0 18.0 0.00 0.17 0.17 51 1009.1
20260504183514 76 252 6.0 18.0 0.00 0.17 0.17 51 1009.0
20260504183030 76 251 7.0 18.0 0.00 0.17 0.17 53 1009.1
20260504182513 76 285 10.0 18.0 0.00 0.17 0.17 49 1009.1
20260504182013 76 162 5.0 15.0 0.00 0.17 0.17 52 1009.1
20260504181530 76 216 4.0 15.0 0.00 0.17 0.17 54 1009.1
20260504181013 75 149 5.0 12.0 0.00 0.17 0.17 54 1009.0
20260504180514 75 257 6.0 13.0 0.00 0.17 0.17 55 1009.0
20260504180033 74 164 6.0 13.0 0.00 0.17 0.17 56 1009.0
20260504175513 74 287 6.0 16.0 0.00 0.17 0.17 55 1009.1
20260504175011 75 288 6.0 16.0 0.00 0.17 0.17 54 1008.9
20260504174530 75 314 7.0 15.0 0.00 0.17 0.17 54 1009.0
20260504174013 75 165 6.0 14.0 0.00 0.17 0.17 53 1009.1
20260504173513 75 268 7.0 14.0 0.00 0.17 0.17 54 1009.1
20260504173030 75 122 5.0 13.0 0.00 0.17 0.17 56 1009.2
20260504172512 74 215 5.0 13.0 0.00 0.17 0.17 55 1009.1
20260504172015 74 167 7.0 14.0 0.00 0.17 0.17 55 1009.2
20260504171540 73 310 8.0 15.0 0.00 0.17 0.17 54 1009.2
20260504171015 73 228 9.0 15.0 0.00 0.17 0.17 55 1009.3
20260504170513 73 222 6.0 14.0 0.00 0.17 0.17 57 1009.2
20260504151013 64 149 4.0 11.0 0.00 0.17 0.17 71 1010.4
20260504150515 64 153 3.0 13.0 0.00 0.17 0.17 72 1010.6
20260504141012 56 201 8.0 14.0 0.01 0.17 0.17 78 1010.3
20260504140512 56 160 4.0 13.0 0.01 0.17 0.17 79 1010.3
20260504130513 55 146 1.0 3.0 0.03 0.16 0.16 89 1010.3
20260504110513 54 157 7.0 15.0 0.00 0.12 0.12 78 1010.7
20260504100513 51 239 3.0 8.0 0.02 0.12 0.12 84 1011.4
20260504081539 55 143 1.0 8.0 0.00 0.00 0.00 68 1011.0
20260504081013 55 146 2.0 8.0 0.00 0.00 0.00 68 1010.8
20260504080510 55 128 3.0 8.0 0.00 0.00 0.00 68 1010.9
20260504050512 55 139 1.0 6.0 0.00 0.00 0.00 62 1013.1
20260504045516 55 151 2.0 8.0 0.00 0.00 0.00 62 1013.1
20260504045013 55 139 3.0 8.0 0.00 0.00 0.00 62 1012.9
20260504044538 55 242 2.0 8.0 0.00 0.00 0.00 62 1013.0
20260504044016 55 272 3.0 8.0 0.00 0.00 0.00 62 1013.0
20260504043512 55 150 4.0 8.0 0.00 0.00 0.00 61 1013.0
20260504043032 55 286 2.0 8.0 0.00 0.00 0.00 62 1013.1
20260504042509 55 268 2.0 8.0 0.00 0.00 0.00 62 1013.2
20260504042010 55 262 2.0 5.0 0.00 0.00 0.00 62 1013.1
20260504041532 55 219 2.0 5.0 0.00 0.00 0.00 61 1013.1
20260504041011 55 143 1.0 6.0 0.00 0.00 0.00 61 1013.0
20260504040516 55 155 2.0 7.0 0.00 0.00 0.00 61 1013.2
20260504040030 55 144 2.0 7.0 0.00 0.00 0.00 61 1013.2
20260504035513 55 176 1.0 7.0 0.00 0.00 0.00 61 1013.3
20260504035015 55 201 3.0 8.0 0.00 0.00 0.00 61 1013.4
20260504034535 55 143 3.0 8.0 0.00 0.00 0.00 61 1013.5
20260504034010 55 131 3.0 8.0 0.00 0.00 0.00 61 1013.4
20260504033512 55 143 3.0 7.0 0.00 0.00 0.00 61 1013.5
20260504033032 55 142 2.0 8.0 0.00 0.00 0.00 61 1013.5
20260504032512 55 138 2.0 8.0 0.00 0.00 0.00 61 1013.6
20260504032015 55 160 3.0 8.0 0.00 0.00 0.00 61 1013.7
20260504031532 55 188 2.0 7.0 0.00 0.00 0.00 61 1013.6
20260504031010 55 261 3.0 7.0 0.00 0.00 0.00 61 1013.7
20260504030511 55 260 2.0 7.0 0.00 0.00 0.00 61 1013.8
20260504030040 55 136 1.0 6.0 0.00 0.00 0.00 60 1014.0
20260504025510 55 120 2.0 6.0 0.00 0.00 0.00 60 1014.0
20260504025010 55 197 2.0 6.0 0.00 0.00 0.00 60 1013.8
20260504024530 55 208 2.0 5.0 0.00 0.00 0.00 60 1013.9
20260504024013 55 127 2.0 4.0 0.00 0.00 0.00 59 1014.1
20260504023515 55 164 2.0 4.0 0.00 0.00 0.00 59 1014.1
20260504023032 55 155 1.0 6.0 0.00 0.00 0.00 59 1014.0
20260504022512 55 130 1.0 6.0 0.00 0.00 0.00 59 1014.0
20260504022013 55 182 1.0 4.0 0.00 0.00 0.00 60 1014.0
20260504021535 55 148 1.0 4.0 0.00 0.00 0.00 60 1014.1
20260504021012 55 162 1.0 4.0 0.00 0.00 0.00 60 1014.1
20260504020514 55 0 1.0 4.0 0.00 0.00 0.00 60 1014.1
20260504020036 55 151 1.0 3.0 0.00 0.00 0.00 59 1014.1
20260504015512 56 154 1.0 3.0 0.00 0.00 0.00 59 1014.0
20260504015015 56 145 1.0 2.0 0.00 0.00 0.00 58 1014.1
20260504014531 57 143 0.0 1.0 0.00 0.00 0.00 56 1014.2
20260504014013 57 143 0.0 1.0 0.00 0.00 0.00 56 1014.3
20260504013516 57 0 0.0 1.0 0.00 0.00 0.00 55 1014.3
20260504013033 58 0 0.0 0.0 0.00 0.00 0.00 54 1014.2
20260504012515 58 153 0.0 0.0 0.00 0.00 0.00 53 1014.2
20260504012020 58 0 0.0 0.0 0.00 0.00 0.00 52 1014.2
20260504011532 59 0 0.0 1.0 0.00 0.00 0.00 52 1014.2
20260504011014 59 153 0.0 2.0 0.00 0.00 0.00 51 1014.1
20260504010512 59 153 0.0 2.0 0.00 0.00 0.00 51 1014.0
20260504010030 59 155 1.0 2.0 0.00 0.00 0.00 51 1013.9
20260504005516 60 0 0.0 5.0 0.00 0.00 0.00 51 1013.8
20260504005013 60 140 1.0 5.0 0.00 0.00 0.00 50 1013.7
20260504004532 60 131 1.0 5.0 0.00 0.00 0.00 50 1013.7
20260504004013 60 298 1.0 5.0 0.00 0.00 0.00 50 1013.5
20260504003515 60 162 1.0 7.0 0.00 0.00 0.00 49 1013.5
20260504003034 61 124 1.0 7.0 0.00 0.00 0.00 49 1013.6
20260504002515 61 152 1.0 8.0 0.00 0.00 0.00 48 1013.3
20260504002014 61 179 2.0 10.0 0.00 0.00 0.00 48 1013.1
20260504001534 62 262 3.0 10.0 0.00 0.00 0.00 46 1013.2
20260504001013 62 240 3.0 10.0 0.00 0.00 0.00 46 1013.3
20260504000512 62 161 3.0 12.0 0.00 0.00 0.00 45 1013.2
20260504000032 63 239 2.0 12.0 0.00 0.00 0.00 45 1013.1
20260503235512 63 217 2.0 11.0 0.00 0.00 0.00 44 1013.2
20260503235011 63 156 3.0 11.0 0.00 0.00 0.00 44 1013.2
20260503234543 63 220 4.0 9.0 0.00 0.00 0.00 43 1013.3
20260503234013 63 227 3.0 13.0 0.00 0.00 0.00 44 1013.1
20260503233513 63 212 4.0 13.0 0.00 0.00 0.00 43 1013.2
20260503233031 64 146 4.0 13.0 0.00 0.00 0.00 43 1013.1
20260503232512 64 217 4.0 11.0 0.00 0.00 0.00 42 1013.1
20260503232014 64 198 3.0 13.0 0.00 0.00 0.00 42 1013.2
20260503231532 64 144 5.0 13.0 0.00 0.00 0.00 42 1013.3
20260503231018 64 174 6.0 12.0 0.00 0.00 0.00 41 1013.4
20260503230518 64 268 3.0 11.0 0.00 0.00 0.00 42 1013.5
20260503230040 65 259 4.0 11.0 0.00 0.00 0.00 40 1013.6
20260503225516 64 229 5.0 11.0 0.00 0.00 0.00 41 1013.7
20260503225015 64 247 4.0 11.0 0.00 0.00 0.00 41 1014.0